Showing default

CHINASAT 1A, 37804

Orbit data source: Space-Track

CHINASAT 1A, 37804 is a payload satellite owned by PLA GAD (CN) in GEO that was launched on Sat, 17 Sep 2011 UTC via a CHANG ZHENG 3B launch vehicle from the Xichang Space Center, China (XSC). Payloads include a variety of satellites, spacecraft, and rockets equipped with specific instruments for various scientific and technological missions. These include communications satellites like Starlink; space stations such as the ISS; scientific satellites like the Hubble; Earth observation satellites from companies like Planet Labs, Umbra, and HawkEye 360; GPS; miniature CubeSats for education and research; and military/defense satellites.

Loading next visibility...
CHINASAT 1A details
Identifier
37804, 2011-047A
Orbit
GEO
Last TLE update8 hours ago
Origin
Flag of CNPLA GAD (CN / PRC)
ManufacturerCAST
MissionNon-operational Defense Communications
Bus & MotorDFH-4, FY
Mass5,320 kg wet, ~2,500 kg dry
Launch date (UTC)
2011-09-17 (13 years ago)
Launch vehicle
CHANG ZHENG 3B
Launch site
Xichang Space Center, China (XSC)
Object type
Payload
Rocket body
Debris
Shape & HBRBox + 2 Pan, 15.5 m
Radar Cross Section19.960 m², Large (>1 m²)

Expand to show TLE details & history

TLE from 8 hours ago
0 CHINASAT 1A
1 37804U 11047A   24361.07524340  .00000107  00000-0  00000+0 0  9993
2 37804   2.3257  85.2879 0003442 220.7685  47.6752  1.00025427 48650
Epoch: 2024-12-26T01:48Z
Definitive object data (Epoch: 2024-12-26T01:48:21.029Z)
Latitude-2.32972°
Longitude-128.39175°
Altitude35,845.88 km
Speed3.073 km/s
True Right ascension23h 35m 01s
True Declination-2° 19' 39"
Sunlit
Object was in daylight at TLE epoch
Visualization TLE readout
Latitude1.20855°
Longitude-6.20779°
Altitude35,869.457 km
Speed3.071 km/s
Apparent Right ascension07h 31m 51s
Apparent Declination-4° 48' 35"
Sunlit
Object is in daylight
Visualization observer readout
Local Sidereal Time09:18:13
Azimuth215.043° SW
Elevation39.022°
Doppler factor1
Orbital elements
Apogee altitude35,871.403 km
Perigee altitude35,842.329 km
Semi-major axis42,235.003 km
Eccentricity0.0003442
Inclination2.3257°
RAAN85.2879°
Arg. of periapsis220.7685°
True anomaly47.70437°
Mean anomaly47.6752°
Eccentric anomaly47.68978°
Mean motion0.25005 °/min
BSTARUnknown
Orbital period1439.69 mins
Loading historical data...
37804 neighbors
Authenticating...
Loading maneuver chart data...
Loading historical data...
Loading historical data...
Loading historical data...
Loading historical data...
Loading historical data...
Loading historical data...
Loading historical data...
Other satellites on launch #47 in the year 2011 (2011-09-17 UTC)

CHINASAT 1A Visibility forecast

Observer location: undefined°, undefined

Span
Click to sort rows by Start time (UTC) header in descending order
Start Az.
Max El. time (UTC)
Max El. Az.
Max El.
End time (UTC)
End Az.
1440 mins2024-12-26 09:57:07.593Z215.032° SW2024-12-26 13:54:07.593Z215.962° SW32.755°2024-12-27 09:57:07.593Z216.168° SW
|